Year,Month,Day,Hour,Minute,Value (Times are PST for temperature in C)
2021,04,17,00,00,11.20
2021,04,17,00,01,11.20
2021,04,17,00,02,11.20
2021,04,17,00,03,11.20
2021,04,17,00,04,11.20
2021,04,17,00,05,11.20
2021,04,17,00,06,11.20
2021,04,17,00,07,11.20
2021,04,17,00,08,11.20
2021,04,17,00,09,11.20
2021,04,17,00,10,11.20
2021,04,17,00,11,11.20
2021,04,17,00,12,11.10
2021,04,17,00,13,11.10
2021,04,17,00,14,11.10
2021,04,17,00,15,11.00
2021,04,17,00,16,11.00
2021,04,17,00,17,11.00
2021,04,17,00,18,11.00
2021,04,17,00,19,11.00
2021,04,17,00,20,10.90
2021,04,17,00,21,10.90
2021,04,17,00,22,10.90
2021,04,17,00,23,10.90
2021,04,17,00,24,10.90
2021,04,17,00,25,11.00
2021,04,17,00,26,11.00
2021,04,17,00,27,11.10
2021,04,17,00,28,11.10
2021,04,17,00,29,11.20
2021,04,17,00,30,11.20
2021,04,17,00,31,11.30
2021,04,17,00,32,11.40
2021,04,17,00,33,11.40
2021,04,17,00,34,11.40
2021,04,17,00,35,11.40
2021,04,17,00,36,11.40
2021,04,17,00,37,11.40
2021,04,17,00,38,11.40
2021,04,17,00,39,11.40
2021,04,17,00,40,11.40
2021,04,17,00,41,11.30
2021,04,17,00,42,11.30
2021,04,17,00,43,11.30
2021,04,17,00,44,11.30
2021,04,17,00,45,11.20
2021,04,17,00,46,11.20
2021,04,17,00,47,11.20
2021,04,17,00,48,11.20
2021,04,17,00,49,11.20
2021,04,17,00,50,11.10
2021,04,17,00,51,11.20
2021,04,17,00,52,11.20
2021,04,17,00,53,11.30
2021,04,17,00,54,11.40
2021,04,17,00,55,11.40
2021,04,17,00,56,11.60
2021,04,17,00,57,11.70
2021,04,17,00,58,11.90
2021,04,17,00,59,11.90
2021,04,17,01,00,12.00
2021,04,17,01,01,12.00
2021,04,17,01,02,12.00
2021,04,17,01,03,12.10
2021,04,17,01,04,12.10
2021,04,17,01,05,12.10
2021,04,17,01,06,12.10
2021,04,17,01,07,12.00
2021,04,17,01,08,12.00
2021,04,17,01,09,12.00
2021,04,17,01,10,12.00
2021,04,17,01,11,12.00
2021,04,17,01,12,12.00
2021,04,17,01,13,12.00
2021,04,17,01,14,12.00
2021,04,17,01,15,12.00
2021,04,17,01,16,12.00
2021,04,17,01,17,12.00
2021,04,17,01,18,12.00
2021,04,17,01,19,12.00
2021,04,17,01,20,11.90
2021,04,17,01,21,11.90
2021,04,17,01,22,11.80
2021,04,17,01,23,11.70
2021,04,17,01,24,11.70
2021,04,17,01,25,11.60
2021,04,17,01,26,11.60
2021,04,17,01,27,11.60
2021,04,17,01,28,11.60
2021,04,17,01,29,11.60
2021,04,17,01,30,11.60
2021,04,17,01,31,11.50
2021,04,17,01,32,11.50
2021,04,17,01,33,11.50
2021,04,17,01,34,11.40
2021,04,17,01,35,11.40
2021,04,17,01,36,11.40
2021,04,17,01,37,11.30
2021,04,17,01,38,11.30
2021,04,17,01,39,11.30
2021,04,17,01,40,11.20
2021,04,17,01,41,11.10
2021,04,17,01,42,11.10
2021,04,17,01,43,11.10
2021,04,17,01,44,11.10
2021,04,17,01,45,11.10
2021,04,17,01,46,11.10
2021,04,17,01,47,11.10
2021,04,17,01,48,11.20
2021,04,17,01,49,11.20
2021,04,17,01,50,11.10
2021,04,17,01,51,11.10
2021,04,17,01,52,11.20
2021,04,17,01,53,11.20
2021,04,17,01,54,11.20
2021,04,17,01,55,11.20
2021,04,17,01,56,11.30
2021,04,17,01,57,11.40
2021,04,17,01,58,11.40
2021,04,17,01,59,11.40
2021,04,17,02,00,11.40
2021,04,17,02,01,11.50
2021,04,17,02,02,11.60
2021,04,17,02,03,11.60
2021,04,17,02,04,11.70
2021,04,17,02,05,11.70
2021,04,17,02,06,11.70
2021,04,17,02,07,11.70
2021,04,17,02,08,11.70
2021,04,17,02,09,11.60
2021,04,17,02,10,11.50
2021,04,17,02,11,11.40
2021,04,17,02,12,11.40
2021,04,17,02,13,11.50
2021,04,17,02,14,11.40
2021,04,17,02,15,11.40
2021,04,17,02,16,11.40
2021,04,17,02,17,11.50
2021,04,17,02,18,11.40
2021,04,17,02,19,11.40
2021,04,17,02,20,11.40
2021,04,17,02,21,11.40
2021,04,17,02,22,11.40
2021,04,17,02,23,11.30
2021,04,17,02,24,11.30
2021,04,17,02,25,11.30
2021,04,17,02,26,11.20
2021,04,17,02,27,11.20
2021,04,17,02,28,11.10
2021,04,17,02,29,11.10
2021,04,17,02,30,11.10
2021,04,17,02,31,11.10
2021,04,17,02,32,11.00
2021,04,17,02,33,11.00
2021,04,17,02,34,11.00
2021,04,17,02,35,11.00
2021,04,17,02,36,10.90
2021,04,17,02,37,10.90
2021,04,17,02,38,10.90
2021,04,17,02,39,10.90
2021,04,17,02,40,10.90
2021,04,17,02,41,10.80
2021,04,17,02,42,10.80
2021,04,17,02,43,10.80
2021,04,17,02,44,10.90
2021,04,17,02,45,10.90
2021,04,17,02,46,10.90
2021,04,17,02,47,10.80
2021,04,17,02,48,10.90
2021,04,17,02,49,10.80
2021,04,17,02,50,10.80
2021,04,17,02,51,10.80
2021,04,17,02,52,10.80
2021,04,17,02,53,10.70
2021,04,17,02,54,10.70
2021,04,17,02,55,10.70
2021,04,17,02,56,10.70
2021,04,17,02,57,10.70
2021,04,17,02,58,10.70
2021,04,17,02,59,10.60
2021,04,17,03,00,10.60
2021,04,17,03,01,10.60
2021,04,17,03,02,10.60
2021,04,17,03,03,10.60
2021,04,17,03,04,10.50
2021,04,17,03,05,10.50
2021,04,17,03,06,10.40
2021,04,17,03,07,10.40
2021,04,17,03,08,10.40
2021,04,17,03,09,10.40
2021,04,17,03,10,10.40
2021,04,17,03,11,10.40
2021,04,17,03,12,10.40
2021,04,17,03,13,10.40
2021,04,17,03,14,10.40
2021,04,17,03,15,10.40
2021,04,17,03,16,10.30
2021,04,17,03,17,10.30
2021,04,17,03,18,10.30
2021,04,17,03,19,10.30
2021,04,17,03,20,10.30
2021,04,17,03,21,10.20
2021,04,17,03,22,10.20
2021,04,17,03,23,10.20
2021,04,17,03,24,10.20
2021,04,17,03,25,10.10
2021,04,17,03,26,10.10
2021,04,17,03,27,10.10
2021,04,17,03,28,10.10
2021,04,17,03,29,10.10
2021,04,17,03,30,10.10
2021,04,17,03,31,10.00
2021,04,17,03,32,10.00
2021,04,17,03,33,10.00
2021,04,17,03,34,10.00
2021,04,17,03,35,10.00
2021,04,17,03,36,9.90
2021,04,17,03,37,9.90
2021,04,17,03,38,9.90
2021,04,17,03,39,9.90
2021,04,17,03,40,10.00
2021,04,17,03,41,10.00
2021,04,17,03,42,10.10
2021,04,17,03,43,10.10
2021,04,17,03,44,10.20
2021,04,17,03,45,10.10
2021,04,17,03,46,10.10
2021,04,17,03,47,10.10
2021,04,17,03,48,10.10
2021,04,17,03,49,10.10
2021,04,17,03,50,10.10
2021,04,17,03,51,10.10
2021,04,17,03,52,10.10
2021,04,17,03,53,10.10
2021,04,17,03,54,10.10
2021,04,17,03,55,10.10
2021,04,17,03,56,10.10
2021,04,17,03,57,10.10
2021,04,17,03,58,10.10
2021,04,17,03,59,10.10
2021,04,17,04,00,10.10
2021,04,17,04,01,10.10
2021,04,17,04,02,10.10
2021,04,17,04,03,10.00
2021,04,17,04,04,10.00
2021,04,17,04,05,10.00
2021,04,17,04,06,10.00
2021,04,17,04,07,9.90
2021,04,17,04,08,9.90
2021,04,17,04,09,9.90
2021,04,17,04,10,9.90
2021,04,17,04,11,9.80
2021,04,17,04,12,9.80
2021,04,17,04,13,9.80
2021,04,17,04,14,9.80
2021,04,17,04,15,9.80
2021,04,17,04,16,9.80
2021,04,17,04,17,9.70
2021,04,17,04,18,9.70
2021,04,17,04,19,9.70
2021,04,17,04,20,9.70
2021,04,17,04,21,9.60
2021,04,17,04,22,9.60
2021,04,17,04,23,9.60
2021,04,17,04,24,9.60
2021,04,17,04,25,9.60
2021,04,17,04,26,9.60
2021,04,17,04,27,9.60
2021,04,17,04,28,9.60
2021,04,17,04,29,9.60
2021,04,17,04,30,9.50
2021,04,17,04,31,9.50
2021,04,17,04,32,9.50
2021,04,17,04,33,9.40
2021,04,17,04,34,9.40
2021,04,17,04,35,9.40
2021,04,17,04,36,9.40
2021,04,17,04,37,9.40
2021,04,17,04,38,9.30
2021,04,17,04,39,9.30
2021,04,17,04,40,9.30
2021,04,17,04,41,9.30
2021,04,17,04,42,9.30
2021,04,17,04,43,9.30
2021,04,17,04,44,9.30
2021,04,17,04,45,9.30
2021,04,17,04,46,9.40
2021,04,17,04,47,9.30
2021,04,17,04,48,9.30
2021,04,17,04,49,9.30
2021,04,17,04,50,9.30
2021,04,17,04,51,9.30
2021,04,17,04,52,9.30
2021,04,17,04,53,9.30
2021,04,17,04,54,9.30
2021,04,17,04,55,9.30
2021,04,17,04,56,9.20
2021,04,17,04,57,9.20
2021,04,17,04,58,9.20
2021,04,17,04,59,9.20
2021,04,17,05,00,9.20
2021,04,17,05,01,9.20
2021,04,17,05,02,9.20
2021,04,17,05,03,9.20
2021,04,17,05,04,9.20
2021,04,17,05,05,9.20
2021,04,17,05,06,9.10
2021,04,17,05,07,9.10
2021,04,17,05,08,9.10
2021,04,17,05,09,9.10
2021,04,17,05,10,9.10
2021,04,17,05,11,9.00
2021,04,17,05,12,9.10
2021,04,17,05,13,9.10
2021,04,17,05,14,9.10
2021,04,17,05,15,9.10
2021,04,17,05,16,9.10
2021,04,17,05,17,9.10
2021,04,17,05,18,9.10
2021,04,17,05,19,9.10
2021,04,17,05,20,9.10
2021,04,17,05,21,9.10
2021,04,17,05,22,9.10
2021,04,17,05,23,9.10
2021,04,17,05,24,9.10
2021,04,17,05,25,9.10
2021,04,17,05,26,9.00
2021,04,17,05,27,9.00
2021,04,17,05,28,9.00
2021,04,17,05,29,8.90
2021,04,17,05,30,8.90
2021,04,17,05,31,8.90
2021,04,17,05,32,8.90
2021,04,17,05,33,8.90
2021,04,17,05,34,8.90
2021,04,17,05,35,8.90
2021,04,17,05,36,8.90
2021,04,17,05,37,8.90
2021,04,17,05,38,8.90
2021,04,17,05,39,8.90
2021,04,17,05,40,8.90
2021,04,17,05,41,8.90
2021,04,17,05,42,8.80
2021,04,17,05,43,8.80
2021,04,17,05,44,8.80
2021,04,17,05,45,8.80
2021,04,17,05,46,8.80
2021,04,17,05,47,8.80
2021,04,17,05,48,8.80
2021,04,17,05,49,8.70
2021,04,17,05,50,8.70
2021,04,17,05,51,8.70
2021,04,17,05,52,8.70
2021,04,17,05,53,8.70
2021,04,17,05,54,8.70
2021,04,17,05,55,8.70
2021,04,17,05,56,8.60
2021,04,17,05,57,8.60
2021,04,17,05,58,8.60
2021,04,17,05,59,8.60
2021,04,17,06,00,8.60
2021,04,17,06,01,8.60
2021,04,17,06,02,8.60
2021,04,17,06,03,8.60
2021,04,17,06,04,8.50
2021,04,17,06,05,8.50
2021,04,17,06,06,8.50
2021,04,17,06,07,8.40
2021,04,17,06,08,8.40
2021,04,17,06,09,8.40
2021,04,17,06,10,8.40
2021,04,17,06,11,8.40
2021,04,17,06,12,8.40
2021,04,17,06,13,8.40
2021,04,17,06,14,8.40
2021,04,17,06,15,8.40
2021,04,17,06,16,8.40
2021,04,17,06,17,8.40
2021,04,17,06,18,8.40
2021,04,17,06,19,8.50
2021,04,17,06,20,8.50
2021,04,17,06,21,8.50
2021,04,17,06,22,8.50
2021,04,17,06,23,8.50
2021,04,17,06,24,8.50
2021,04,17,06,25,8.60
2021,04,17,06,26,8.50
2021,04,17,06,27,8.50
2021,04,17,06,28,8.50
2021,04,17,06,29,8.50
2021,04,17,06,30,8.50
2021,04,17,06,31,8.50
2021,04,17,06,32,8.60
2021,04,17,06,33,8.50
2021,04,17,06,34,8.50
2021,04,17,06,35,8.60
2021,04,17,06,36,8.60
2021,04,17,06,37,8.60
2021,04,17,06,38,8.60
2021,04,17,06,39,8.60
2021,04,17,06,40,8.60
2021,04,17,06,41,8.60
2021,04,17,06,42,8.60
2021,04,17,06,43,8.60
2021,04,17,06,44,8.60
2021,04,17,06,45,8.70
2021,04,17,06,46,8.70
2021,04,17,06,47,8.70
2021,04,17,06,48,8.70
2021,04,17,06,49,8.70
2021,04,17,06,50,8.80
2021,04,17,06,51,8.80
2021,04,17,06,52,8.80
2021,04,17,06,53,8.80
2021,04,17,06,54,8.80
2021,04,17,06,55,8.90
2021,04,17,06,56,8.90
2021,04,17,06,57,8.90
2021,04,17,06,58,8.90
2021,04,17,06,59,8.90
2021,04,17,07,00,9.00
2021,04,17,07,01,9.00
2021,04,17,07,02,9.00
2021,04,17,07,03,9.00
2021,04,17,07,04,9.00
2021,04,17,07,05,9.10
2021,04,17,07,06,9.10
2021,04,17,07,07,9.20
2021,04,17,07,08,9.20
2021,04,17,07,09,9.20
2021,04,17,07,10,9.30
2021,04,17,07,11,9.30
2021,04,17,07,12,9.30
2021,04,17,07,13,9.30
2021,04,17,07,14,9.40
2021,04,17,07,15,9.40
2021,04,17,07,16,9.40
2021,04,17,07,17,9.50
2021,04,17,07,18,9.50
2021,04,17,07,19,9.50
2021,04,17,07,20,9.60
2021,04,17,07,21,9.60
2021,04,17,07,22,9.60
2021,04,17,07,23,9.70
2021,04,17,07,24,9.80
2021,04,17,07,25,9.80
2021,04,17,07,26,9.80
2021,04,17,07,27,9.90
2021,04,17,07,28,9.90
2021,04,17,07,29,9.90
2021,04,17,07,30,10.00
2021,04,17,07,31,10.00
2021,04,17,07,32,10.10
2021,04,17,07,33,10.10
2021,04,17,07,34,10.20
2021,04,17,07,35,10.20
2021,04,17,07,36,10.20
2021,04,17,07,37,10.20
2021,04,17,07,38,10.30
2021,04,17,07,39,10.30
2021,04,17,07,40,10.30
2021,04,17,07,41,10.40
2021,04,17,07,42,10.40
2021,04,17,07,43,10.40
2021,04,17,07,44,10.50
2021,04,17,07,45,10.50
2021,04,17,07,46,10.60
2021,04,17,07,47,10.70
2021,04,17,07,48,10.70
2021,04,17,07,49,10.70
2021,04,17,07,50,10.80
2021,04,17,07,51,10.80
2021,04,17,07,52,10.90
2021,04,17,07,53,10.90
2021,04,17,07,54,11.00
2021,04,17,07,55,11.00
2021,04,17,07,56,11.10
2021,04,17,07,57,11.10
2021,04,17,07,58,11.10
2021,04,17,07,59,11.20
2021,04,17,08,00,11.20
2021,04,17,08,01,11.30
2021,04,17,08,02,11.30
2021,04,17,08,03,11.40
2021,04,17,08,04,11.50
2021,04,17,08,05,11.60
2021,04,17,08,06,11.60
2021,04,17,08,07,11.60
2021,04,17,08,08,11.70
2021,04,17,08,09,11.80
2021,04,17,08,10,11.80
2021,04,17,08,11,11.90
2021,04,17,08,12,11.90
2021,04,17,08,13,12.00
2021,04,17,08,14,12.00
2021,04,17,08,15,12.10
2021,04,17,08,16,12.20
2021,04,17,08,17,12.30
2021,04,17,08,18,12.30
2021,04,17,08,19,12.40
2021,04,17,08,20,12.50
2021,04,17,08,21,12.60
2021,04,17,08,22,12.60
2021,04,17,08,23,12.70
2021,04,17,08,24,12.90
2021,04,17,08,25,13.00
2021,04,17,08,26,13.10
2021,04,17,08,27,13.20
2021,04,17,08,28,13.20
2021,04,17,08,29,13.30
2021,04,17,08,30,13.40
2021,04,17,08,31,13.50
2021,04,17,08,32,13.70
2021,04,17,08,33,13.90
2021,04,17,08,34,14.00
2021,04,17,08,35,14.20
2021,04,17,08,36,14.30
2021,04,17,08,37,14.50
2021,04,17,08,38,14.60
2021,04,17,08,39,14.70
2021,04,17,08,40,14.90
2021,04,17,08,41,15.00
2021,04,17,08,42,15.20
2021,04,17,08,43,15.30
2021,04,17,08,44,15.30
2021,04,17,08,45,15.30
2021,04,17,08,46,15.40
2021,04,17,08,47,15.40
2021,04,17,08,48,15.40
2021,04,17,08,49,15.40
2021,04,17,08,50,15.50
2021,04,17,08,51,15.50
2021,04,17,08,52,15.60
2021,04,17,08,53,15.60
2021,04,17,08,54,15.60
2021,04,17,08,55,15.60
2021,04,17,08,56,15.60
2021,04,17,08,57,15.60
2021,04,17,08,58,15.50
2021,04,17,08,59,15.50
2021,04,17,09,00,15.50
2021,04,17,09,01,15.50
2021,04,17,09,02,15.60
2021,04,17,09,03,15.60
2021,04,17,09,04,15.60
2021,04,17,09,05,15.60
2021,04,17,09,06,15.60
2021,04,17,09,07,15.60
2021,04,17,09,08,15.70
2021,04,17,09,09,15.70
2021,04,17,09,10,15.70
2021,04,17,09,11,15.70
2021,04,17,09,12,15.70
2021,04,17,09,13,15.70
2021,04,17,09,14,15.70
2021,04,17,09,15,15.70
2021,04,17,09,16,15.70
2021,04,17,09,17,15.70
2021,04,17,09,18,15.70
2021,04,17,09,19,15.60
2021,04,17,09,20,15.60
2021,04,17,09,21,15.60
2021,04,17,09,22,15.60
2021,04,17,09,23,15.60
2021,04,17,09,24,15.60
2021,04,17,09,25,15.70
2021,04,17,09,26,15.70
2021,04,17,09,27,15.70
2021,04,17,09,28,15.70
2021,04,17,09,29,15.70
2021,04,17,09,30,15.70
2021,04,17,09,31,15.80
2021,04,17,09,32,15.80
2021,04,17,09,33,15.80
2021,04,17,09,34,15.80
2021,04,17,09,35,15.80
2021,04,17,09,36,15.90
2021,04,17,09,37,15.90
2021,04,17,09,38,15.90
2021,04,17,09,39,15.90
2021,04,17,09,40,15.80
2021,04,17,09,41,15.90
2021,04,17,09,42,15.90
2021,04,17,09,43,15.90
2021,04,17,09,44,15.80
2021,04,17,09,45,15.90
2021,04,17,09,46,15.90
2021,04,17,09,47,16.00
2021,04,17,09,48,16.10
2021,04,17,09,49,16.20
2021,04,17,09,50,16.30
2021,04,17,09,51,16.30
2021,04,17,09,52,16.40
2021,04,17,09,53,16.40
2021,04,17,09,54,16.40
2021,04,17,09,55,16.30
2021,04,17,09,56,16.20
2021,04,17,09,57,16.20
2021,04,17,09,58,16.20
2021,04,17,09,59,16.20
2021,04,17,10,00,16.20
2021,04,17,10,01,16.20
2021,04,17,10,02,16.20
2021,04,17,10,03,16.30
2021,04,17,10,04,16.30
2021,04,17,10,05,16.40
2021,04,17,10,06,16.50
2021,04,17,10,07,16.60
2021,04,17,10,08,16.70
2021,04,17,10,09,16.80
2021,04,17,10,10,17.00
2021,04,17,10,11,17.10
2021,04,17,10,12,17.00
2021,04,17,10,13,17.00
2021,04,17,10,14,16.90
2021,04,17,10,15,16.90
2021,04,17,10,16,16.90
2021,04,17,10,17,16.90
2021,04,17,10,18,16.90
2021,04,17,10,19,16.90
2021,04,17,10,20,16.90
2021,04,17,10,21,16.90
2021,04,17,10,22,16.90
2021,04,17,10,23,17.00
2021,04,17,10,24,17.00
2021,04,17,10,25,17.00
2021,04,17,10,26,17.00
2021,04,17,10,27,17.00
2021,04,17,10,28,16.90
2021,04,17,10,29,16.80
2021,04,17,10,30,16.70
2021,04,17,10,31,16.60
2021,04,17,10,32,16.50
2021,04,17,10,33,16.40
2021,04,17,10,34,16.30
2021,04,17,10,35,16.30
2021,04,17,10,36,16.20
2021,04,17,10,37,16.10
2021,04,17,10,38,16.10
2021,04,17,10,39,16.10
2021,04,17,10,40,16.20
2021,04,17,10,41,16.30
2021,04,17,10,42,16.40
2021,04,17,10,43,16.50
2021,04,17,10,44,16.60
2021,04,17,10,45,16.70
2021,04,17,10,46,16.70
2021,04,17,10,47,16.70
2021,04,17,10,48,16.80
2021,04,17,10,49,16.80
2021,04,17,10,50,16.80
2021,04,17,10,51,16.70
2021,04,17,10,52,16.60
2021,04,17,10,53,16.60
2021,04,17,10,54,16.50
2021,04,17,10,55,16.50
2021,04,17,10,56,16.50
2021,04,17,10,57,16.50
2021,04,17,10,58,16.60
2021,04,17,10,59,16.60
2021,04,17,11,00,16.70
2021,04,17,11,01,16.70
2021,04,17,11,02,16.70
2021,04,17,11,03,16.70
2021,04,17,11,04,16.70
2021,04,17,11,05,16.70
2021,04,17,11,06,16.70
2021,04,17,11,07,16.70
2021,04,17,11,08,16.70
2021,04,17,11,09,16.60
2021,04,17,11,10,16.50
2021,04,17,11,11,16.40
2021,04,17,11,12,16.30
2021,04,17,11,13,16.30
2021,04,17,11,14,16.40
2021,04,17,11,15,16.40
2021,04,17,11,16,16.40
2021,04,17,11,17,16.40
2021,04,17,11,18,16.40
2021,04,17,11,19,16.40
2021,04,17,11,20,16.50
2021,04,17,11,21,16.50
2021,04,17,11,22,16.50
2021,04,17,11,23,16.50
2021,04,17,11,24,16.60
2021,04,17,11,25,16.60
2021,04,17,11,26,16.60
2021,04,17,11,27,16.60
2021,04,17,11,28,16.60
2021,04,17,11,29,16.60
2021,04,17,11,30,16.60
2021,04,17,11,31,16.60
2021,04,17,11,32,16.60
2021,04,17,11,33,16.60
2021,04,17,11,34,16.60
2021,04,17,11,35,16.60
2021,04,17,11,36,16.60
2021,04,17,11,37,16.60
2021,04,17,11,38,16.60
2021,04,17,11,39,16.60
2021,04,17,11,40,16.60
2021,04,17,11,41,16.70
2021,04,17,11,42,16.60
2021,04,17,11,43,16.60
2021,04,17,11,44,16.70
2021,04,17,11,45,16.70
2021,04,17,11,46,16.70
2021,04,17,11,47,16.80
2021,04,17,11,48,16.90
2021,04,17,11,49,16.90
2021,04,17,11,50,16.90
2021,04,17,11,51,17.00
2021,04,17,11,52,17.10
2021,04,17,11,53,17.20
2021,04,17,11,54,17.30
2021,04,17,11,55,17.50
2021,04,17,11,56,17.60
2021,04,17,11,57,17.60
2021,04,17,11,58,17.70
2021,04,17,11,59,17.70
2021,04,17,12,00,17.80
2021,04,17,12,01,17.80
2021,04,17,12,02,17.90
2021,04,17,12,03,18.00
2021,04,17,12,04,18.10
2021,04,17,12,05,18.10
2021,04,17,12,06,18.20
2021,04,17,12,07,18.20
2021,04,17,12,08,18.20
2021,04,17,12,09,18.10
2021,04,17,12,10,18.10
2021,04,17,12,11,18.20
2021,04,17,12,12,18.20
2021,04,17,12,13,18.30
2021,04,17,12,14,18.20
2021,04,17,12,15,18.20
2021,04,17,12,16,18.20
2021,04,17,12,17,18.20
2021,04,17,12,18,18.30
2021,04,17,12,19,18.40
2021,04,17,12,20,18.50
2021,04,17,12,21,18.60
2021,04,17,12,22,18.60
2021,04,17,12,23,18.60
2021,04,17,12,24,18.60
2021,04,17,12,25,18.50
2021,04,17,12,26,18.40
2021,04,17,12,27,18.40
2021,04,17,12,28,18.50
2021,04,17,12,29,18.60
2021,04,17,12,30,18.60
2021,04,17,12,31,18.70
2021,04,17,12,32,18.70
2021,04,17,12,33,18.70
2021,04,17,12,34,18.70
2021,04,17,12,35,18.60
2021,04,17,12,36,18.50
2021,04,17,12,37,18.40
2021,04,17,12,38,18.40
2021,04,17,12,39,18.40
2021,04,17,12,40,18.40
2021,04,17,12,41,18.60
2021,04,17,12,42,18.70
2021,04,17,12,43,18.70
2021,04,17,12,44,18.80
2021,04,17,12,45,18.90
2021,04,17,12,46,19.00
2021,04,17,12,47,19.20
2021,04,17,12,48,19.20
2021,04,17,12,49,19.30
2021,04,17,12,50,19.30
2021,04,17,12,51,19.30
2021,04,17,12,52,19.20
2021,04,17,12,53,19.20
2021,04,17,12,54,19.30
2021,04,17,12,55,19.30
2021,04,17,12,56,19.40
2021,04,17,12,57,19.50
2021,04,17,12,58,19.60
2021,04,17,12,59,19.70
2021,04,17,13,00,19.80
2021,04,17,13,01,19.90
2021,04,17,13,02,19.90
2021,04,17,13,03,20.00
2021,04,17,13,04,20.00
2021,04,17,13,05,19.90
2021,04,17,13,06,19.80
2021,04,17,13,07,19.60
2021,04,17,13,08,19.40
2021,04,17,13,09,19.20
2021,04,17,13,10,19.20
2021,04,17,13,11,19.20
2021,04,17,13,12,19.30
2021,04,17,13,13,19.20
2021,04,17,13,14,19.20
2021,04,17,13,15,19.20
2021,04,17,13,16,19.20
2021,04,17,13,17,19.30
2021,04,17,13,18,19.40
2021,04,17,13,19,19.50
2021,04,17,13,20,19.50
2021,04,17,13,21,19.60
2021,04,17,13,22,19.70
2021,04,17,13,23,19.70
2021,04,17,13,24,19.70
2021,04,17,13,25,19.70
2021,04,17,13,26,19.70
2021,04,17,13,27,19.70
2021,04,17,13,28,19.80
2021,04,17,13,29,19.90
2021,04,17,13,30,19.90
2021,04,17,13,31,19.90
2021,04,17,13,32,20.00
2021,04,17,13,33,20.10
2021,04,17,13,34,20.10
2021,04,17,13,35,20.10
2021,04,17,13,36,20.10
2021,04,17,13,37,20.20
2021,04,17,13,38,20.20
2021,04,17,13,39,20.10
2021,04,17,13,40,20.10
2021,04,17,13,41,20.20
2021,04,17,13,42,20.20
2021,04,17,13,43,20.30
2021,04,17,13,44,20.40
2021,04,17,13,45,20.40
2021,04,17,13,46,20.50
2021,04,17,13,47,20.60
2021,04,17,13,48,20.60
2021,04,17,13,49,20.50
2021,04,17,13,50,20.40
2021,04,17,13,51,20.40
2021,04,17,13,52,20.30
2021,04,17,13,53,20.20
2021,04,17,13,54,20.10
2021,04,17,13,55,20.00
2021,04,17,13,56,20.00
2021,04,17,13,57,19.90
2021,04,17,13,58,19.90
2021,04,17,13,59,20.00
2021,04,17,14,00,20.10
2021,04,17,14,01,20.30
2021,04,17,14,02,20.40
2021,04,17,14,03,20.60
2021,04,17,14,04,20.70
2021,04,17,14,05,20.70
2021,04,17,14,06,20.80
2021,04,17,14,07,20.80
2021,04,17,14,08,20.90
2021,04,17,14,09,21.00
2021,04,17,14,10,21.00
2021,04,17,14,11,21.00
2021,04,17,14,12,20.90
2021,04,17,14,13,20.90
2021,04,17,14,14,20.90
2021,04,17,14,15,20.90
2021,04,17,14,16,20.70
2021,04,17,14,17,20.60
2021,04,17,14,18,20.40
2021,04,17,14,19,20.30
2021,04,17,14,20,20.20
2021,04,17,14,21,20.10
2021,04,17,14,22,20.00
2021,04,17,14,23,19.90
2021,04,17,14,24,19.90
2021,04,17,14,25,19.90
2021,04,17,14,26,19.90
2021,04,17,14,27,20.00
2021,04,17,14,28,20.10
2021,04,17,14,29,20.10
2021,04,17,14,30,20.00
2021,04,17,14,31,20.10
2021,04,17,14,32,20.10
2021,04,17,14,33,20.20
2021,04,17,14,34,20.20
2021,04,17,14,35,20.30
2021,04,17,14,36,20.30
2021,04,17,14,37,20.20
2021,04,17,14,38,20.20
2021,04,17,14,39,20.10
2021,04,17,14,40,20.10
2021,04,17,14,41,20.10
2021,04,17,14,42,20.10
2021,04,17,14,43,20.00
2021,04,17,14,44,19.90
2021,04,17,14,45,19.90
2021,04,17,14,46,19.80
2021,04,17,14,47,19.80
2021,04,17,14,48,19.80
2021,04,17,14,49,19.80
2021,04,17,14,50,19.80
2021,04,17,14,51,19.80
2021,04,17,14,52,19.80
2021,04,17,14,53,19.80
2021,04,17,14,54,19.90
2021,04,17,14,55,19.90
2021,04,17,14,56,19.90
2021,04,17,14,57,20.00
2021,04,17,14,58,20.00
2021,04,17,14,59,19.90
2021,04,17,15,00,19.90
2021,04,17,15,01,20.00
2021,04,17,15,02,20.00
2021,04,17,15,03,20.10
2021,04,17,15,04,20.10
2021,04,17,15,05,20.10
2021,04,17,15,06,20.20
2021,04,17,15,07,20.20
2021,04,17,15,08,20.20
2021,04,17,15,09,20.30
2021,04,17,15,10,20.30
2021,04,17,15,11,20.20
2021,04,17,15,12,20.20
2021,04,17,15,13,20.30
2021,04,17,15,14,20.40
2021,04,17,15,15,20.60
2021,04,17,15,16,20.80
2021,04,17,15,17,20.90
2021,04,17,15,18,21.10
2021,04,17,15,19,21.10
2021,04,17,15,20,21.20
2021,04,17,15,21,21.20
2021,04,17,15,22,21.10
2021,04,17,15,23,21.10
2021,04,17,15,24,21.00
2021,04,17,15,25,20.90
2021,04,17,15,26,20.80
2021,04,17,15,27,20.70
2021,04,17,15,28,20.70
2021,04,17,15,29,20.60
2021,04,17,15,30,20.50
2021,04,17,15,31,20.50
2021,04,17,15,32,20.40
2021,04,17,15,33,20.40
2021,04,17,15,34,20.50
2021,04,17,15,35,20.60
2021,04,17,15,36,20.60
2021,04,17,15,37,20.60
2021,04,17,15,38,20.60
2021,04,17,15,39,20.60
2021,04,17,15,40,20.60
2021,04,17,15,41,20.60
2021,04,17,15,42,20.70
2021,04,17,15,43,20.70
2021,04,17,15,44,20.80
2021,04,17,15,45,20.80
2021,04,17,15,46,20.80
2021,04,17,15,47,20.80
2021,04,17,15,48,20.90
2021,04,17,15,49,20.90
2021,04,17,15,50,21.00
2021,04,17,15,51,21.00
2021,04,17,15,52,21.10
2021,04,17,15,53,21.10
2021,04,17,15,54,21.20
2021,04,17,15,55,21.40
2021,04,17,15,56,21.50
2021,04,17,15,57,21.60
2021,04,17,15,58,21.60
2021,04,17,15,59,21.60
2021,04,17,16,00,21.60
2021,04,17,16,01,21.50
2021,04,17,16,02,21.50
2021,04,17,16,03,21.50
2021,04,17,16,04,21.60
2021,04,17,16,05,21.60
2021,04,17,16,06,21.60
2021,04,17,16,07,21.70
2021,04,17,16,08,21.70
2021,04,17,16,09,21.80
2021,04,17,16,10,21.80
2021,04,17,16,11,22.00
2021,04,17,16,12,22.10
2021,04,17,16,13,22.10
2021,04,17,16,14,22.10
2021,04,17,16,15,22.20
2021,04,17,16,16,22.30
2021,04,17,16,17,22.30
2021,04,17,16,18,22.30
2021,04,17,16,19,22.20
2021,04,17,16,20,22.10
2021,04,17,16,21,22.10
2021,04,17,16,22,22.00
2021,04,17,16,23,21.90
2021,04,17,16,24,21.80
2021,04,17,16,25,21.80
2021,04,17,16,26,21.80
2021,04,17,16,27,21.80
2021,04,17,16,28,21.80
2021,04,17,16,29,21.80
2021,04,17,16,30,21.80
2021,04,17,16,31,21.90
2021,04,17,16,32,22.00
2021,04,17,16,33,22.00
2021,04,17,16,34,22.00
2021,04,17,16,35,22.10
2021,04,17,16,36,22.10
2021,04,17,16,37,22.20
2021,04,17,16,38,22.30
2021,04,17,16,39,22.40
2021,04,17,16,40,22.50
2021,04,17,16,41,22.60
2021,04,17,16,42,22.60
2021,04,17,16,43,22.60
2021,04,17,16,44,22.70
2021,04,17,16,45,22.70
2021,04,17,16,46,22.60
2021,04,17,16,47,22.60
2021,04,17,16,48,22.60
2021,04,17,16,49,22.60
2021,04,17,16,50,22.70
2021,04,17,16,51,22.60
2021,04,17,16,52,22.70
2021,04,17,16,53,22.70
2021,04,17,16,54,22.80
2021,04,17,16,55,22.90
2021,04,17,16,56,22.90
2021,04,17,16,57,22.90
2021,04,17,16,58,22.90
2021,04,17,16,59,22.80
2021,04,17,17,00,22.80
2021,04,17,17,01,22.80
2021,04,17,17,02,22.90
2021,04,17,17,03,23.00
2021,04,17,17,04,23.00
2021,04,17,17,05,23.10
2021,04,17,17,06,23.00
2021,04,17,17,07,23.00
2021,04,17,17,08,22.90
2021,04,17,17,09,22.90
2021,04,17,17,10,22.80
2021,04,17,17,11,22.70
2021,04,17,17,12,22.70
2021,04,17,17,13,22.60
2021,04,17,17,14,22.60
2021,04,17,17,15,22.60
2021,04,17,17,16,22.50
2021,04,17,17,17,22.40
2021,04,17,17,18,22.30
2021,04,17,17,19,22.30
2021,04,17,17,20,22.30
2021,04,17,17,21,22.30
2021,04,17,17,22,22.30
2021,04,17,17,23,22.30
2021,04,17,17,24,22.30
2021,04,17,17,25,22.30
2021,04,17,17,26,22.30
2021,04,17,17,27,22.30
2021,04,17,17,28,22.40